Salida, CO

3:46 AM MDT on July 24, 2017 (GMT -0600)
Salida

Weather History for KANK - July, 2013

Change the Weather History Date:

Monday, July 1, 2013

  Actual Average (KGUC) Record (KGUC)
Temperature  
Mean Temperature 64 °F -  
Max Temperature 81 °F 76 °F 87 °F (2002)
Min Temperature 47 °F 41 °F 35 °F (1997)
Degree Days  
Heating Degree Days 1    
Growing Degree Days 14 (Base 50)    
Moisture  
Dew Point 47 °F    
Average Humidity 60    
Maximum Humidity 93    
Minimum Humidity 16    
Precipitation  
Precipitation 0.00 in - - ()
Sea Level Pressure  
Sea Level Pressure 30.48 in    
Wind  
Wind Speed 7 mph (SSE)    
Max Wind Speed 23 mph    
Max Gust Speed 34 mph    
Visibility 10 miles    
Events      
Averages and records for this station are not official NWS values.
T = Trace of Precipitation, MM = Missing Value Source: NWS Daily Summary

Daily Weather History Graph

Daily Weather History Graph

Search for Another Location

Airport or City:

Trip Planner

Search our weather history database for the weather conditions in past years. The results will help you decide how hot, cold, wet, or windy it might be!

Date:

Astronomy

Jul. 01, 2013 Rise Set
Actual Time 5:43 AM MDT 8:32 PM MDT
Civil Twilight 5:12 AM MDT 9:03 PM MDT
Nautical Twilight 4:32 AM MDT 9:43 PM MDT
Astronomical Twilight 3:47 AM MDT 10:28 PM MDT
Moon 1:12 AM MDT (7/1) 2:52 PM MDT (7/1)
Length of Visible Light 15h 51m
Length of Day
14h 48m
Waning Crescent, 35% of the Moon is Illuminated
Jul 1
Waning Crescent
Jul 8
New
Jul 15
First Quarter
Jul 22
Full
Jul 29
Last Quarter

Hourly Weather History & Observations

Time (MDT) Temp. Dew Point Humidity Pressure Visibility Wind Dir Wind Speed Gust Speed Precip Events Conditions
12:15 AM 55.2 °F 51.8 °F 88% 30.50 in 10.0 mi West 3.5 mph - N/A   Clear
12:35 AM 53.8 °F 51.3 °F 91% 30.50 in 10.0 mi West 6.9 mph - N/A   Clear
12:55 AM 53.6 °F 50.0 °F 88% 30.50 in 10.0 mi WSW 8.1 mph - N/A   Clear
1:15 AM 53.1 °F 49.3 °F 87% 30.50 in 10.0 mi WSW 6.9 mph - N/A   Clear
1:35 AM 53.2 °F 48.7 °F 85% 30.49 in 10.0 mi West 8.1 mph - N/A   Clear
1:55 AM 54.3 °F 48.2 °F 80% 30.49 in 10.0 mi West 8.1 mph - N/A   Clear
2:15 AM 52.3 °F 48.4 °F 86% 30.49 in 10.0 mi WSW 3.5 mph - N/A   Clear
2:35 AM 52.0 °F 47.7 °F 85% 30.49 in 10.0 mi WSW 5.8 mph - N/A   Clear
2:55 AM 51.1 °F 47.5 °F 87% 30.49 in 10.0 mi WSW 6.9 mph - N/A   Clear
3:15 AM 51.1 °F 46.9 °F 86% 30.49 in 10.0 mi West 6.9 mph - N/A   Clear
3:35 AM 51.1 °F 46.8 °F 85% 30.50 in 10.0 mi WSW 6.9 mph - N/A   Clear
3:55 AM 50.2 °F 46.2 °F 86% 30.50 in 10.0 mi West 5.8 mph - N/A   Clear
4:15 AM 50.0 °F 46.8 °F 89% 30.50 in 10.0 mi WNW 4.6 mph - N/A   Clear
4:35 AM 49.5 °F 45.7 °F 87% 30.50 in 10.0 mi WSW 4.6 mph - N/A   Clear
4:55 AM 48.7 °F 45.7 °F 89% 30.50 in 10.0 mi Calm Calm - N/A   Clear
5:15 AM 48.0 °F 46.0 °F 93% 30.50 in 10.0 mi West 3.5 mph - N/A   Clear
5:35 AM 47.8 °F 45.1 °F 90% 30.50 in 10.0 mi WSW 3.5 mph - N/A   Mostly Cloudy
5:55 AM 48.0 °F 45.9 °F 92% 30.51 in 10.0 mi WNW 3.5 mph - N/A   Scattered Clouds
6:15 AM 48.4 °F 46.2 °F 92% 30.51 in 10.0 mi WSW 3.5 mph - N/A   Clear
6:35 AM 50.0 °F 45.7 °F 85% 30.52 in 10.0 mi WSW 5.8 mph - N/A   Clear
6:55 AM 51.8 °F 47.8 °F 86% 30.52 in 10.0 mi West 4.6 mph - N/A   Clear
7:15 AM 54.1 °F 48.2 °F 80% 30.52 in 10.0 mi NNW 3.5 mph - N/A   Clear
7:35 AM 54.7 °F 47.5 °F 77% 30.52 in 10.0 mi North 3.5 mph - N/A   Clear
7:55 AM 55.6 °F 47.8 °F 75% 30.52 in 10.0 mi WNW 3.5 mph - N/A   Clear
8:15 AM 57.6 °F 47.5 °F 69% 30.52 in 10.0 mi NW 5.8 mph - N/A   Clear
8:35 AM 58.5 °F 47.5 °F 67% 30.52 in 10.0 mi NNW 4.6 mph - N/A   Clear
8:55 AM 59.7 °F 47.8 °F 65% 30.51 in 10.0 mi Calm Calm - N/A   Clear
9:15 AM 62.4 °F 47.7 °F 58% 30.51 in 10.0 mi Calm Calm - N/A   Clear
9:35 AM 64.4 °F 46.6 °F 52% 30.50 in 10.0 mi NNE 3.5 mph - N/A   Clear
9:55 AM 65.3 °F 47.5 °F 52% 30.49 in 10.0 mi Calm Calm - N/A   Clear
10:15 AM 67.3 °F 46.6 °F 47% 30.48 in 10.0 mi Calm Calm - N/A   Clear
10:35 AM 69.8 °F 46.4 °F 43% 30.47 in 10.0 mi Calm Calm - N/A   Clear
10:55 AM 72.1 °F 45.0 °F 38% 30.47 in 10.0 mi Calm Calm - N/A   Clear
11:15 AM 74.7 °F 44.2 °F 34% 30.46 in 10.0 mi Calm Calm - N/A   Clear
11:35 AM 76.5 °F 42.1 °F 29% 30.45 in 10.0 mi SSE 3.5 mph - N/A   Clear
11:55 AM 77.5 °F 34.3 °F 21% 30.44 in 10.0 mi Calm Calm - N/A   Clear
12:15 PM 79.9 °F 32.0 °F 18% 30.43 in 10.0 mi NE 5.8 mph - N/A   Clear
12:35 PM 81.7 °F 31.3 °F 16% 30.42 in 10.0 mi NNE 6.9 mph - N/A   Clear
12:55 PM 81.5 °F 42.8 °F 25% 30.42 in 10.0 mi ESE 16.1 mph 23.0 mph N/A   Clear
1:15 PM 79.2 °F 43.5 °F 28% 30.41 in 10.0 mi SE 21.9 mph 27.6 mph N/A   Clear
1:35 PM 79.7 °F 44.4 °F 29% 30.40 in 10.0 mi ESE 17.3 mph 32.2 mph N/A   Clear
1:55 PM 78.8 °F 44.1 °F 29% 30.41 in 10.0 mi ESE 20.7 mph 26.5 mph N/A   Clear
2:15 PM 78.8 °F 45.1 °F 30% 30.40 in 10.0 mi ESE 20.7 mph 27.6 mph N/A   Clear
2:35 PM 78.3 °F 44.8 °F 30% 30.40 in 10.0 mi ESE 19.6 mph 32.2 mph N/A   Clear
2:55 PM 77.4 °F 45.1 °F 32% 30.41 in 10.0 mi ESE 23.0 mph 32.2 mph N/A   Clear
3:15 PM 73.4 °F 47.3 °F 39% 30.41 in 10.0 mi SE 18.4 mph 34.5 mph N/A   Scattered Clouds
3:35 PM 68.2 °F 51.1 °F 54% 30.43 in 10.0 mi ESE 17.3 mph 26.5 mph N/A   Mostly Cloudy
3:55 PM 73.2 °F 46.6 °F 39% 30.43 in 10.0 mi ESE 18.4 mph 26.5 mph N/A   Mostly Cloudy
4:15 PM 74.8 °F 45.7 °F 35% 30.43 in 10.0 mi ESE 20.7 mph 27.6 mph N/A   Clear
4:35 PM 75.2 °F 45.3 °F 34% 30.43 in 10.0 mi ESE 19.6 mph 27.6 mph N/A   Clear
4:55 PM 75.0 °F 43.5 °F 32% 30.43 in 10.0 mi ESE 19.6 mph 29.9 mph N/A   Mostly Cloudy
5:15 PM 73.6 °F 43.3 °F 34% 30.44 in 10.0 mi SE 21.9 mph 28.8 mph N/A   Scattered Clouds
5:35 PM 72.3 °F 43.9 °F 36% 30.44 in 10.0 mi ESE 18.4 mph 25.3 mph N/A   Clear
5:55 PM 70.3 °F 44.2 °F 39% 30.43 in 10.0 mi ESE 13.8 mph 24.2 mph N/A   Scattered Clouds
6:15 PM 70.0 °F 45.3 °F 41% 30.46 in 10.0 mi ENE 9.2 mph 17.3 mph N/A   Overcast
6:35 PM 63.0 °F 54.9 °F 75% 30.47 in 7.0 mi NNW 9.2 mph - N/A   Overcast
6:55 PM 65.8 °F 53.6 °F 65% 30.46 in 10.0 mi WNW 3.5 mph - N/A   Overcast
7:15 PM 66.4 °F 55.4 °F 68% 30.46 in 10.0 mi North 4.6 mph - N/A   Scattered Clouds
7:35 PM 65.8 °F 52.5 °F 62% 30.46 in 10.0 mi Calm Calm - N/A   Scattered Clouds
7:55 PM 65.3 °F 54.0 °F 67% 30.46 in 10.0 mi Calm Calm - N/A   Clear
8:15 PM 64.9 °F 49.8 °F 58% 30.47 in 10.0 mi ESE 6.9 mph - N/A   Scattered Clouds
8:35 PM 64.8 °F 48.4 °F 55% 30.49 in 10.0 mi ESE 9.2 mph 19.6 mph N/A   Mostly Cloudy
8:55 PM 64.4 °F 47.8 °F 55% 30.48 in 10.0 mi ESE 10.4 mph 17.3 mph N/A   Overcast
9:15 PM 63.5 °F 47.5 °F 56% 30.49 in 10.0 mi East 6.9 mph - N/A   Scattered Clouds
9:35 PM 63.0 °F 46.9 °F 56% 30.51 in 10.0 mi East 13.8 mph 18.4 mph N/A   Scattered Clouds
9:55 PM 63.5 °F 46.6 °F 54% 30.52 in 10.0 mi ESE 10.4 mph - N/A   Mostly Cloudy
10:15 PM 62.6 °F 46.4 °F 55% 30.52 in 10.0 mi SE 8.1 mph - N/A   Scattered Clouds
10:35 PM 62.1 °F 46.8 °F 57% 30.52 in 10.0 mi East 5.8 mph - N/A   Scattered Clouds
10:55 PM 60.8 °F 47.1 °F 61% 30.51 in 10.0 mi Calm Calm - N/A   Scattered Clouds
11:15 PM 59.9 °F 47.5 °F 64% 30.52 in 10.0 mi Calm Calm - N/A   Clear
11:35 PM 58.5 °F 49.3 °F 72% 30.51 in 10.0 mi SE 4.6 mph - N/A   Clear
11:55 PM 58.1 °F 49.3 °F 72% 30.51 in 10.0 mi South 4.6 mph - N/A   Clear